Temperature
14 14 15 15 18 20 20 20 19 19 19 18 18 19 20 21 21 20 15 15 15 15 15 15 15 15 15 15 15 15 15 15 15 15 15 15 15 15 15 15 15 15 14 14 14 14 14 15 15
14 14 15 16 19 20 20 20 19 19 18 16 17 17 19 19 17 16 15 15 15 15 14 14 15 15 15 15 15 15 15 15 15 15 15 15 15 15 14 14 14 14 14 14 14 15 14 14 14
14 14 15 18 19 20 21 19 19 18 16 16 17 17 18 18 15 15 15 15 15 14 14 14 14 15 15 15 15 14 14 14 15 15 15 14 14 14 14 14 14 14 14 14 14 14 14 14 14
14 14 16 18 18 19 19 18 17 17 16 16 17 17 16 15 14 14 15 15 14 14 14 14 14 14 14 14 14 14 14 14 14 14 14 14 14 14 14 14 14 14 14 14 14 14 14 14 14
14 16 17 17 18 18 17 17 16 17 18 17 17 18 16 14 14 15 15 14 14 14 14 14 14 14 14 14 14 14 14 14 14 14 14 14 14 14 14 14 14 14 14 14 14 14 14 14 14
14 16 17 18 18 17 17 15 16 17 17 16 16 17 16 14 14 14 14 14 14 14 14 13 14 14 14 14 14 14 14 14 14 14 14 14 14 14 14 14 14 14 14 14 14 14 14 14 14
15 16 17 18 17 17 17 15 16 17 17 16 16 17 15 14 14 14 14 14 14 14 13 13 13 13 13 14 14 14 14 14 14 14 14 14 14 14 14 14 14 14 14 13 14 14 13 13 13
14 16 16 16 16 17 16 14 15 16 17 15 15 17 16 14 14 14 13 13 13 13 13 13 13 13 13 13 13 13 13 13 13 13 14 14 14 14 14 13 14 14 13 13 13 13 13 13 13
13 15 16 16 16 17 15 15 14 13 14 14 14 14 14 14 14 13 13 13 13 13 13 13 13 13 13 13 13 13 13 13 13 13 13 13 13 13 13 13 13 13 13 13 13 13 13 13 13
13 15 16 16 16 16 15 15 14 14 14 14 13 13 13 13 13 13 13 13 13 13 13 13 13 13 13 13 13 13 13 13 13 13 13 13 13 13 13 13 13 13 13 13 13 13 13 12 12
13 15 15 14 13 13 14 14 13 14 15 15 15 14 13 13 13 13 13 13 13 13 13 13 13 13 13 13 13 13 13 13 13 13 13 13 13 13 12 12 12 12 12 12 12 12 12 12 12
13 13 13 13 12 12 13 13 13 13 15 14 14 13 13 12 12 12 12 12 12 12 13 13 12 12 13 13 12 13 13 13 13 13 12 12 12 12 12 12 12 12 12 12 12 12 12 12 12
13 13 12 11 11 11 12 12 13 13 13 13 13 12 12 12 12 12 12 12 12 12 12 12 12 12 12 12 12 12 12 12 12 12 12 12 12 12 12 12 12 12 12 12 12 11 11 11 11
13 12 12 11 11 11 12 12 12 13 12 12 12 12 12 12 12 12 12 12 12 12 12 12 12 12 12 12 12 12 12 12 12 12 12 12 12 12 12 12 12 12 11 11 11 11 11 11 11
10 12 12 12 12 11 11 12 13 13 12 11 11 12 11 12 12 12 12 12 12 12 12 12 12 12 12 12 12 12 12 12 12 12 12 12 12 12 11 11 11 11 11 11 11 11 11 11 11
11 12 13 13 12 11 12 14 15 13 12 12 12 11 11 11 11 12 12 12 12 12 12 11 11 11 11 12 12 11 11 11 11 11 11 11 11 11 11 11 11 11 11 11 11 11 11 10 10
11 13 13 13 12 11 11 13 15 12 11 12 12 11 11 11 11 11 11 11 12 12 12 11 11 11 11 11 11 11 11 11 11 11 11 11 11 11 11 11 11 11 11 10 10 10 10 10 10
13 13 13 13 12 11 11 12 13 12 11 12 12 11 11 10 11 11 11 11 11 11 11 11 11 11 11 11 11 11 11 11 11 10 10 10 10 11 10 11 11 10 10 10 10 10 10 10 9
12 12 13 13 11 11 11 12 13 12 12 11 11 11 11 10 11 10 11 11 11 11 11 11 11 11 11 11 10 10 10 10 10 10 10 10 10 10 10 10 10 10 10 10 10 10 9 9 9
11 11 12 12 11 11 11 11 13 13 12 11 11 11 11 10 10 10 10 11 11 11 11 11 11 11 10 10 10 10 10 10 10 10 10 10 10 10 10 10 10 10 10 9 9 9 9 9 9
10 11 11 11 10 10 10 12 13 13 11 10 10 10 10 10 10 10 10 10 10 11 11 11 10 10 10 10 10 10 9 9 9 9 9 9 9 9 9 9 9 9 9 9 9 9 9 9 8
10 10 10 10 10 11 10 11 14 13 12 11 10 10 10 9 9 9 9 9 10 10 10 10 10 10 10 10 10 10 9 9 9 9 9 9 9 9 9 9 9 9 9 9 9 9 9 8 8
10 9 9 9 10 10 10 10 13 12 11 12 11 10 10 9 9 9 9 9 9 10 10 10 10 10 10 9 9 9 9 9 9 9 9 8 8 8 9 9 9 9 8 8 8 8 8 8 8
9 9 9 9 9 9 10 10 12 13 12 12 12 10 9 9 8 8 8 9 9 9 9 9 9 9 9 9 9 9 9 9 8 8 8 8 8 8 8 8 8 8 8 8 8 8 8 8 7
8 8 8 8 9 10 10 10 11 12 11 11 11 10 8 8 8 8 8 8 8 8 9 9 9 9 9 9 9 9 9 8 8 8 8 8 8 8 8 8 8 8 8 8 8 7 7 7 7
8 9 9 9 10 11 9 10 11 10 9 8 8 8 7 7 7 7 7 8 8 8 8 8 8 8 9 9 9 8 8 8 8 8 8 8 7 7 7 7 7 7 7 7 7 7 7 7 7
8 8 9 9 9 9 10 10 10 9 8 7 7 6 6 6 6 7 7 7 8 8 8 8 8 8 8 8 8 8 8 8 8 8 8 7 7 7 7 7 7 7 7 7 7 7 6 6 6
7 8 7 8 8 9 10 10 10 9 9 8 7 7 6 6 6 6 6 7 8 8 8 8 8 8 8 8 8 8 7 7 7 7 7 7 7 7 7 7 7 6 6 6 6 6 6 6 6
6 6 7 8 8 9 10 10 9 9 8 8 7 6 6 5 5 5 6 6 7 7 7 7 7 7 7 8 7 7 7 7 7 7 7 7 7 6 6 6 6 6 6 5 5 5 5 5 6
6 6 6 6 7 8 9 9 7 7 7 7 6 5 5 5 4 5 5 5 6 6 7 7 7 7 7 7 7 7 7 7 7 6 6 6 6 6 6 6 6 5 5 5 5 5 5 5 5
Wind_Speed
2 0 2 3 4 5 10 7 5 5 5 3 3 4 4 4 3 1 4 4 4 7 11 13 12 12 11 11 10 10 10 10 10 9 10 10 10 10 10 9 9 9 10 10 10 10 10 11 11
1 1 3 3 6 9 7 7 9 7 3 2 3 4 4 4 1 2 3 3 4 7 10 12 12 12 11 11 10 10 10 10 10 9 9 10 10 10 9 9 9 9 9 10 10 10 10 10 10
1 1 3 4 6 8 5 5 7 5 4 3 3 3 3 2 2 2 3 3 5 7 9 11 12 11 11 11 11 10 10 10 10 10 9 10 10 10 9 9 9 9 10 10 10 10 9 9 9
3 3 3 5 9 7 4 3 4 5 5 4 4 3 2 1 1 2 2 4 6 7 8 10 12 11 11 11 11 11 11 10 10 10 10 10 10 10 10 9 10 10 10 10 10 9 9 9 8
2 3 5 7 9 5 5 4 5 6 6 5 5 4 3 2 2 3 4 6 7 7 7 8 11 11 11 11 11 11 11 10 9 9 10 10 10 10 10 10 10 10 10 10 9 9 8 8 8
3 3 6 9 9 5 6 6 6 8 6 5 6 5 3 3 4 4 5 5 6 7 7 7 8 11 11 11 11 11 11 10 10 9 9 10 10 10 10 10 10 10 9 9 9 8 8 8 8
4 4 6 7 6 6 5 6 8 9 9 7 5 5 4 5 4 4 5 5 5 5 6 6 7 9 11 11 11 11 11 11 10 10 9 10 10 10 10 10 10 9 9 8 8 7 7 8 8
3 3 5 6 7 6 4 5 5 9 7 4 5 6 5 6 5 5 5 5 5 5 5 5 6 7 9 10 11 11 11 10 10 10 9 10 10 10 10 10 9 9 9 8 8 7 7 8 8
3 6 8 7 6 4 5 6 4 3 5 5 5 5 1 6 7 7 6 5 5 5 5 4 4 5 7 9 10 11 11 10 10 10 10 10 9 9 9 9 9 9 9 8 8 8 8 8 8
6 8 9 5 5 3 6 7 5 5 8 8 7 6 4 7 8 9 9 8 7 7 6 5 5 5 6 7 8 9 9 9 9 8 10 9 7 7 8 10 9 9 9 9 9 9 9 7 7
7 8 6 6 6 4 5 6 6 8 9 10 10 9 9 9 10 10 10 9 8 7 6 5 5 5 6 6 6 6 7 7 7 8 9 8 7 6 7 7 8 8 8 7 8 7 6 5 5
7 8 7 5 5 5 6 6 7 12 10 6 8 8 9 11 12 11 11 10 8 7 7 6 6 5 6 6 6 6 6 6 6 7 8 7 5 6 6 5 6 6 6 5 5 4 5 5 5
11 7 7 7 6 8 8 10 9 13 13 9 7 9 11 12 12 11 10 9 9 8 8 7 6 6 6 6 5 5 6 6 7 7 8 8 6 6 5 5 5 6 5 5 5 5 5 5 5
7 8 8 8 9 7 10 12 10 14 10 10 11 12 12 12 12 11 10 10 10 10 9 8 8 8 7 6 6 6 6 6 7 7 8 8 7 6 5 5 5 5 5 5 5 5 5 4 4
4 6 9 10 10 6 6 12 13 15 9 10 12 12 12 12 12 12 11 11 11 10 9 9 8 8 8 8 7 6 6 6 6 7 8 8 7 7 6 5 5 5 6 6 5 5 4 4 4
5 7 9 7 8 7 8 15 10 7 9 11 11 11 11 11 11 11 11 10 10 10 9 9 8 9 9 8 8 7 7 7 6 7 7 8 8 8 7 5 5 6 6 6 5 5 4 4 4
8 10 12 8 7 7 10 13 7 4 7 10 10 10 11 10 10 10 10 10 10 10 10 9 9 10 9 8 7 7 7 7 6 7 7 8 9 9 7 6 5 7 5 5 5 5 5 5 4
11 12 12 11 6 9 12 15 10 7 8 11 11 10 11 11 11 9 9 9 9 9 9 9 9 9 8 7 6 5 6 6 6 7 7 9 9 9 7 5 7 7 6 5 5 6 5 5 5
11 13 15 11 6 9 14 17 16 11 11 13 12 11 12 12 10 8 8 8 8 8 9 9 9 10 8 7 7 6 6 6 6 6 8 9 9 9 7 5 6 7 6 7 7 6 6 5 5
14 14 15 9 6 8 12 18 17 14 14 14 14 12 12 11 10 8 8 8 9 9 10 10 10 10 10 8 7 6 6 5 6 5 7 8 9 9 8 7 6 7 7 8 8 7 6 5 5
17 17 15 10 5 7 9 13 14 11 10 10 11 12 11 11 10 9 9 9 9 9 10 9 10 10 10 9 6 5 5 4 5 6 6 7 8 9 9 8 7 7 7 7 9 9 9 7 6
15 14 13 11 9 7 7 10 10 8 9 9 10 9 10 10 9 9 9 9 9 9 9 9 10 9 9 9 9 10 8 8 8 6 6 6 8 9 9 9 8 8 7 8 8 9 8 8 7
10 7 10 11 11 10 10 9 9 6 9 10 9 8 8 8 8 8 8 8 8 8 8 8 9 9 9 10 10 10 9 8 6 6 7 7 6 8 8 8 8 8 7 8 9 9 8 8 8
7 5 5 7 8 13 15 12 10 8 10 8 7 6 6 5 6 6 6 6 6 6 6 7 8 9 9 10 10 11 10 9 8 8 8 7 6 6 8 8 8 8 7 8 9 9 10 8 8
8 6 5 7 9 12 9 11 10 6 5 6 5 4 2 2 4 5 5 6 5 6 6 7 8 8 8 9 10 10 10 10 10 9 9 8 7 7 8 8 8 8 8 8 8 8 9 9 9
12 12 10 8 10 9 7 11 6 2 3 3 3 2 1 2 2 3 4 5 5 6 6 7 8 8 8 8 9 9 9 8 7 9 8 8 7 7 8 9 8 8 8 8 8 7 8 8 8
8 11 10 8 6 7 8 7 5 2 3 3 3 2 1 1 2 2 2 3 4 5 5 6 7 7 8 8 8 8 9 8 8 8 8 7 7 7 9 9 9 9 8 9 9 7 9 8 8
7 6 6 7 8 11 10 10 6 4 4 3 2 1 1 1 1 0 0 1 2 3 4 5 6 7 7 8 8 7 8 8 8 7 8 8 8 8 9 9 9 9 8 9 9 8 8 9 8
5 6 6 7 8 9 9 6 1 3 2 2 2 1 0 0 0 1 1 1 1 1 2 3 4 5 6 7 7 7 7 7 7 7 8 8 7 8 9 9 9 9 10 9 9 9 9 10 9
5 6 6 6 7 8 8 5 3 2 2 2 2 2 1 1 1 2 2 2 1 1 1 2 3 4 5 5 6 7 6 6 7 7 7 8 8 8 8 9 9 9 10 10 10 10 10 10 10
Wind_Direction
356 267 207 202 204 219 232 218 207 187 194 195 212 226 231 226 232 100 86 121 130 154 160 158 155 153 152 149 145 143 143 145 142 139 138 137 137 138 138 132 133 131 128 124 120 115 112 110 107
316 205 194 205 223 225 227 213 207 199 168 160 201 218 221 224 330 87 124 127 146 153 162 161 153 155 154 152 150 148 147 147 147 145 141 143 139 136 133 130 129 126 124 123 119 117 115 113 112
156 234 201 203 224 234 228 192 206 194 196 202 190 215 232 195 137 128 105 141 155 153 160 156 155 158 157 155 155 154 153 151 151 150 146 146 144 139 134 131 127 123 121 119 117 118 117 115 116
196 175 197 225 229 236 248 187 176 183 190 207 207 200 191 82 104 97 120 151 151 151 155 157 159 162 161 159 159 159 157 154 152 152 150 149 146 142 137 131 124 121 121 119 118 119 119 118 119
200 199 208 228 237 234 231 225 202 205 196 194 209 211 185 133 103 118 136 148 151 151 155 156 165 166 166 163 161 160 159 155 153 152 151 152 149 144 137 131 126 124 122 120 120 120 121 121 121
180 205 222 234 234 231 227 215 210 219 213 202 207 212 187 139 147 132 139 147 149 152 155 159 162 171 169 166 165 167 165 160 158 158 154 150 146 142 139 134 130 127 123 122 124 124 123 122 118
206 210 236 243 243 236 220 199 214 216 215 207 203 201 181 170 155 144 144 148 150 153 157 166 174 175 173 170 171 168 167 165 164 161 157 153 148 145 141 139 137 134 131 128 127 127 126 125 119
216 217 232 233 237 239 193 190 223 222 223 200 207 213 198 169 156 153 149 153 157 160 164 171 181 184 182 177 173 168 165 167 167 162 158 152 149 147 144 146 141 137 134 131 130 132 129 122 119
198 226 234 228 225 228 183 200 208 231 221 211 222 242 202 145 156 161 163 167 175 177 176 177 184 190 189 182 176 172 167 170 170 166 158 158 164 160 158 152 144 141 138 137 135 133 126 121 121
203 229 237 226 223 228 202 218 208 209 222 224 225 225 182 168 174 181 187 189 193 191 188 189 195 196 196 186 179 181 178 176 180 176 172 174 169 163 159 146 145 145 141 141 137 135 136 143 140
209 234 240 229 231 241 224 230 222 225 233 231 224 210 190 190 196 200 203 201 202 199 195 198 203 201 198 186 180 179 178 177 181 180 178 174 167 160 159 155 152 152 152 151 144 149 155 155 149
219 236 238 241 226 232 237 237 235 233 241 251 239 215 198 204 209 212 212 210 205 203 201 200 202 197 193 184 181 183 180 176 175 177 181 176 169 171 166 163 164 163 166 160 161 166 158 156 157
226 237 236 240 240 245 249 245 252 251 248 252 238 219 217 218 221 222 220 215 211 210 206 202 200 200 192 183 181 184 183 180 175 175 181 180 173 174 171 168 168 169 166 166 166 166 162 160 157
233 236 245 245 241 243 246 254 252 255 247 238 229 226 226 225 224 222 219 218 215 213 212 206 203 200 194 191 187 185 184 180 177 178 181 181 179 172 170 168 169 169 169 169 171 167 163 159 155
225 244 252 242 236 235 239 255 241 249 240 234 231 230 228 227 223 222 220 218 217 216 213 209 206 202 197 196 194 187 185 182 181 181 183 182 180 176 174 171 171 173 171 166 165 161 162 156 151
216 235 246 225 214 212 216 256 252 237 226 234 234 231 228 226 225 225 222 222 218 213 211 208 204 202 201 198 194 187 186 187 187 182 182 185 183 181 179 175 174 172 170 168 166 164 163 158 156
217 235 243 237 206 202 218 258 264 224 224 235 236 234 233 232 229 227 223 221 216 210 208 206 203 199 196 194 191 187 186 188 189 185 183 184 186 185 184 180 174 172 170 172 173 172 170 164 153
228 234 242 240 212 214 233 252 261 251 243 246 244 242 238 235 234 228 223 219 213 208 205 204 201 197 190 185 186 186 188 190 191 191 189 186 189 187 188 182 177 174 175 175 177 175 174 168 155
249 244 248 253 234 230 244 256 262 261 251 251 250 246 243 241 239 228 217 213 207 205 203 201 198 194 187 183 185 189 195 194 195 194 194 191 190 190 189 184 180 183 184 182 179 171 167 165 153
239 244 251 259 235 240 260 264 266 261 253 249 249 248 245 243 235 221 212 207 205 201 200 199 198 192 190 191 188 190 192 199 200 196 199 197 192 191 192 188 186 188 187 184 182 173 172 174 180
233 236 243 252 259 245 272 270 254 248 240 244 244 246 245 238 230 219 212 209 203 201 199 197 196 194 192 188 181 173 182 194 198 201 203 204 200 195 194 193 190 193 190 189 190 186 182 181 193
239 236 241 245 250 251 239 271 258 238 234 238 241 239 239 234 228 220 212 209 205 203 197 197 196 193 190 186 187 188 195 201 205 201 200 201 205 202 197 196 195 197 197 194 195 194 193 187 191
240 235 230 236 242 256 238 251 265 228 237 240 236 233 234 230 223 215 210 209 205 198 192 193 193 194 192 191 194 199 204 206 202 197 196 198 204 207 203 200 198 200 202 200 198 196 197 199 198
213 204 218 226 230 245 235 232 262 230 234 233 225 226 227 217 209 203 198 198 199 194 191 191 192 195 194 195 197 202 205 203 200 201 198 200 203 206 207 203 201 201 203 203 203 199 199 203 205
198 198 213 215 221 241 216 223 249 244 227 226 229 226 209 184 189 191 188 190 193 195 195 194 194 195 195 196 201 204 208 207 208 207 206 204 206 208 208 204 203 203 204 205 205 204 204 206 207
208 211 220 230 236 240 206 229 244 233 227 239 249 243 230 214 197 192 194 194 195 198 198 196 197 198 196 199 204 207 207 208 212 213 211 209 212 212 209 205 206 206 203 204 205 206 208 208 211
212 219 237 252 261 248 231 238 255 245 247 233 226 222 234 213 190 196 195 200 200 201 205 203 200 201 202 203 204 206 206 206 208 209 211 211 212 211 209 206 205 207 206 206 205 209 209 208 210
235 220 214 221 230 240 239 238 239 213 224 204 198 208 211 163 170 205 231 244 221 212 212 208 207 207 206 204 205 205 206 207 205 206 208 207 207 208 206 206 204 205 207 208 208 210 210 209 211
213 210 225 227 240 242 243 237 267 217 193 188 195 233 217 154 203 353 350 345 312 232 211 210 211 211 209 207 206 204 205 206 205 207 208 207 204 204 208 207 204 205 206 207 208 209 208 210 211
235 227 223 230 235 241 251 246 67 41 45 49 36 9 348 338 344 357 2 360 350 329 260 220 214 214 212 207 205 204 203 202 205 209 209 205 204 204 206 206 206 208 208 208 208 208 209 210 211
Height
1513 1514 1516 1519 1518 1513 1507 1506 1508 1511 1512 1513 1514 1514 1512 1511 1512 1517 1517 1515 1516 1518 1520 1521 1523 1525 1526 1528 1529 1530 1532 1533 1533 1534 1535 1536 1536 1537 1538 1539 1540 1540 1541 1542 1542 1543 1543 1544 1544
1513 1515 1518 1518 1512 1508 1504 1504 1508 1508 1511 1514 1515 1514 1513 1513 1515 1515 1514 1514 1516 1518 1519 1521 1523 1524 1526 1527 1529 1530 1531 1532 1533 1534 1535 1536 1537 1538 1538 1539 1540 1541 1541 1542 1543 1543 1544 1544 1544
1514 1515 1518 1514 1509 1502 1500 1504 1506 1510 1513 1513 1513 1514 1513 1513 1514 1514 1514 1514 1516 1517 1519 1521 1522 1524 1526 1527 1528 1530 1531 1532 1533 1534 1535 1536 1537 1538 1539 1539 1540 1541 1541 1542 1543 1543 1544 1544 1545
1515 1517 1517 1512 1506 1504 1504 1505 1508 1510 1512 1513 1513 1512 1513 1513 1513 1513 1513 1514 1516 1517 1519 1520 1522 1524 1525 1527 1528 1529 1530 1532 1532 1534 1535 1536 1537 1538 1539 1539 1540 1541 1542 1542 1543 1544 1544 1545 1545
1514 1515 1512 1509 1505 1504 1507 1508 1510 1508 1509 1511 1512 1510 1511 1512 1511 1512 1513 1514 1515 1516 1518 1520 1522 1523 1525 1526 1527 1529 1530 1531 1532 1533 1534 1535 1537 1538 1539 1539 1540 1541 1542 1542 1543 1544 1544 1545 1546
1515 1512 1508 1503 1501 1504 1506 1508 1509 1508 1508 1510 1511 1510 1510 1510 1511 1511 1512 1513 1515 1516 1517 1519 1521 1523 1524 1526 1527 1528 1529 1530 1532 1533 1534 1535 1536 1537 1538 1539 1540 1541 1541 1542 1543 1544 1544 1545 1546
1513 1510 1504 1502 1502 1502 1504 1506 1506 1505 1506 1508 1509 1508 1509 1510 1510 1511 1512 1513 1514 1515 1516 1518 1520 1521 1523 1525 1526 1527 1529 1530 1531 1532 1534 1535 1536 1537 1538 1539 1540 1540 1541 1542 1542 1543 1544 1545 1546
1511 1510 1505 1503 1502 1500 1503 1505 1505 1505 1505 1507 1508 1506 1507 1508 1508 1510 1511 1512 1513 1514 1515 1517 1519 1520 1521 1523 1525 1526 1528 1529 1531 1532 1533 1535 1536 1537 1538 1539 1539 1540 1541 1541 1542 1543 1544 1545 1545
1510 1509 1501 1499 1500 1498 1502 1503 1504 1504 1504 1505 1505 1505 1505 1505 1507 1508 1509 1511 1512 1513 1514 1515 1517 1518 1520 1522 1523 1525 1526 1528 1530 1531 1532 1534 1535 1536 1537 1538 1539 1539 1540 1541 1542 1543 1543 1544 1545
1508 1503 1496 1498 1498 1498 1500 1501 1502 1502 1502 1502 1502 1502 1503 1504 1505 1506 1507 1508 1510 1511 1512 1514 1515 1516 1518 1520 1521 1523 1525 1526 1528 1530 1531 1532 1534 1535 1536 1537 1538 1539 1540 1540 1541 1542 1543 1544 1545
1503 1498 1497 1499 1499 1500 1500 1500 1501 1500 1497 1497 1498 1499 1500 1501 1503 1504 1505 1506 1507 1509 1510 1511 1513 1514 1515 1517 1519 1521 1523 1524 1526 1528 1530 1531 1532 1533 1535 1536 1537 1538 1539 1540 1540 1541 1542 1543 1544
1500 1498 1498 1498 1499 1499 1498 1498 1498 1496 1494 1495 1496 1497 1497 1498 1499 1501 1502 1503 1505 1506 1507 1509 1510 1511 1513 1515 1517 1519 1520 1522 1524 1526 1528 1529 1530 1531 1533 1534 1535 1536 1537 1538 1539 1540 1541 1542 1543
1497 1496 1497 1497 1497 1497 1497 1496 1495 1491 1492 1492 1492 1493 1494 1495 1496 1498 1499 1500 1501 1503 1504 1506 1507 1509 1510 1512 1514 1516 1518 1519 1521 1523 1525 1527 1528 1529 1531 1532 1533 1535 1536 1537 1538 1539 1540 1541 1542
1494 1494 1495 1494 1495 1495 1494 1492 1492 1485 1487 1488 1488 1489 1490 1491 1492 1493 1495 1496 1497 1499 1501 1502 1504 1506 1507 1509 1511 1513 1515 1517 1519 1521 1522 1524 1526 1527 1528 1529 1531 1533 1534 1536 1537 1538 1539 1540 1541
1494 1493 1491 1490 1491 1491 1492 1486 1483 1481 1484 1484 1484 1484 1485 1486 1487 1489 1490 1492 1494 1495 1497 1498 1500 1502 1504 1506 1508 1510 1512 1513 1516 1517 1519 1521 1523 1524 1526 1527 1529 1531 1532 1534 1535 1536 1537 1538 1539
1492 1490 1485 1482 1487 1488 1491 1476 1474 1477 1479 1479 1480 1480 1481 1482 1483 1484 1486 1488 1489 1491 1493 1495 1496 1498 1500 1502 1505 1507 1509 1511 1512 1514 1516 1518 1520 1522 1523 1525 1526 1528 1530 1531 1533 1534 1535 1536 1538
1486 1481 1477 1479 1482 1484 1484 1473 1472 1475 1475 1475 1476 1476 1477 1477 1478 1479 1481 1483 1485 1487 1488 1491 1492 1494 1497 1499 1501 1503 1506 1508 1509 1511 1513 1515 1517 1519 1520 1522 1524 1526 1528 1529 1531 1532 1533 1534 1535
1473 1474 1473 1474 1477 1481 1478 1471 1470 1472 1472 1471 1471 1472 1472 1472 1473 1475 1476 1478 1480 1482 1484 1486 1488 1490 1493 1495 1498 1500 1502 1504 1506 1508 1510 1512 1514 1515 1517 1519 1521 1523 1524 1526 1528 1529 1531 1532 1533
1472 1472 1470 1471 1476 1477 1472 1467 1465 1467 1468 1467 1466 1467 1467 1467 1469 1470 1472 1474 1476 1477 1479 1482 1484 1486 1489 1491 1493 1495 1498 1500 1502 1504 1506 1508 1510 1512 1514 1515 1517 1519 1521 1522 1524 1526 1528 1529 1530
1474 1472 1469 1471 1475 1474 1469 1464 1460 1460 1461 1461 1461 1461 1462 1463 1464 1465 1467 1469 1471 1473 1475 1477 1480 1482 1485 1487 1490 1492 1495 1497 1499 1500 1502 1504 1506 1508 1510 1511 1513 1515 1517 1519 1521 1522 1524 1525 1527
1470 1469 1467 1469 1473 1473 1471 1457 1453 1453 1456 1457 1457 1457 1457 1458 1459 1460 1462 1464 1466 1468 1470 1473 1476 1478 1481 1483 1486 1488 1491 1492 1494 1496 1497 1499 1501 1503 1505 1507 1509 1512 1513 1515 1517 1519 1520 1522 1524
1465 1466 1469 1471 1470 1465 1467 1455 1443 1446 1449 1451 1451 1452 1452 1453 1454 1456 1457 1460 1462 1464 1467 1469 1472 1474 1477 1479 1481 1484 1485 1487 1489 1491 1493 1495 1497 1499 1501 1503 1505 1508 1510 1511 1513 1515 1516 1518 1519
1463 1466 1468 1468 1468 1466 1462 1462 1441 1443 1444 1444 1446 1447 1447 1449 1450 1452 1453 1455 1458 1461 1463 1465 1468 1470 1473 1475 1477 1479 1481 1483 1485 1487 1489 1490 1493 1495 1497 1499 1501 1503 1505 1507 1509 1511 1513 1514 1516
1465 1467 1467 1466 1466 1463 1452 1455 1437 1436 1437 1438 1442 1444 1444 1445 1447 1449 1450 1452 1455 1457 1459 1461 1463 1466 1468 1470 1473 1475 1477 1479 1481 1483 1484 1487 1489 1490 1493 1495 1496 1499 1501 1503 1505 1506 1508 1510 1512
1462 1462 1462 1461 1457 1445 1444 1447 1436 1433 1436 1438 1440 1441 1442 1443 1444 1446 1447 1449 1451 1453 1455 1457 1459 1462 1464 1466 1468 1470 1473 1475 1476 1478 1480 1482 1484 1486 1488 1490 1492 1494 1496 1498 1500 1502 1504 1506 1507
1455 1454 1451 1448 1441 1435 1446 1440 1431 1436 1438 1439 1440 1441 1441 1442 1442 1443 1444 1446 1448 1450 1452 1454 1456 1458 1460 1462 1464 1466 1468 1470 1472 1474 1475 1477 1479 1481 1483 1485 1487 1489 1492 1494 1496 1498 1500 1501 1503
1452 1450 1448 1447 1444 1441 1434 1432 1434 1436 1437 1438 1439 1440 1440 1440 1441 1442 1443 1444 1445 1447 1448 1450 1452 1454 1456 1458 1460 1462 1464 1466 1467 1469 1471 1472 1474 1476 1479 1480 1482 1485 1487 1489 1491 1493 1495 1497 1499
1451 1449 1451 1448 1443 1436 1427 1427 1426 1431 1433 1436 1438 1438 1439 1440 1440 1441 1441 1442 1443 1444 1445 1447 1449 1451 1453 1454 1456 1457 1459 1461 1463 1464 1466 1467 1469 1472 1473 1475 1477 1480 1482 1484 1486 1488 1490 1492 1494
1452 1452 1447 1442 1438 1431 1426 1426 1430 1431 1434 1435 1437 1438 1439 1439 1439 1439 1439 1440 1441 1442 1443 1444 1446 1447 1449 1450 1452 1453 1455 1457 1458 1460 1461 1463 1465 1467 1469 1471 1472 1475 1477 1480 1481 1483 1485 1487 1489
1449 1448 1448 1446 1440 1436 1428 1430 1434 1435 1436 1437 1437 1438 1438 1439 1439 1439 1438 1438 1438 1439 1440 1441 1442 1444 1445 1446 1448 1449 1451 1452 1454 1455 1457 1459 1460 1462 1464 1466 1468 1470 1472 1474 1476 1478 1480 1482 1484